| time (UTC) | temp C | wind direction | speed KPH | gust KPH | rain 1hr cm | rain 24hr cm | rain mn cm | humidity % | barometer mb |
| 20260506051003 | 10 | 312 | 0.0 | 0.0 | 0.41 | 2.67 | 0.51 | 98 | 1008.0 |
| 20260506050504 | 10 | 311 | 0.0 | 0.0 | 0.43 | 2.64 | 0.48 | 98 | 1008.1 |
| 20260506045004 | 9 | 304 | 0.0 | 1.6 | 0.41 | 2.51 | 0.36 | 98 | 1008.4 |
| 20260506044504 | 9 | 304 | 1.6 | 3.2 | 0.43 | 2.49 | 0.33 | 98 | 1008.4 |
| 20260506043003 | 9 | 294 | 1.6 | 4.8 | 0.36 | 2.39 | 0.23 | 98 | 1008.5 |
| 20260506042503 | 9 | 229 | 0.0 | 0.0 | 0.36 | 2.36 | 0.20 | 98 | 1008.5 |
| 20260506042004 | 9 | 198 | 0.0 | 0.0 | 0.33 | 2.39 | 0.18 | 98 | 1008.4 |
| 20260506041503 | 9 | 191 | 0.0 | 0.0 | 0.33 | 2.36 | 0.15 | 98 | 1008.4 |
| 20260506041003 | 9 | 188 | 0.0 | 0.0 | 0.30 | 2.31 | 0.10 | 98 | 1008.3 |
| 20260506040505 | 9 | 188 | 0.0 | 3.2 | 0.25 | 2.26 | 0.05 | 98 | 1008.3 |
| 20260506040003 | 9 | 188 | 0.0 | 4.8 | 0.23 | 2.21 | 0.00 | 97 | 1008.3 |
| 20260506035503 | 9 | 188 | 1.6 | 4.8 | 0.20 | 2.18 | 2.18 | 97 | 1008.3 |
| 20260506035004 | 9 | 154 | 1.6 | 4.8 | 0.20 | 2.16 | 2.16 | 97 | 1008.4 |
| 20260506034503 | 9 | 173 | 1.6 | 3.2 | 0.18 | 2.11 | 2.11 | 97 | 1008.6 |
| 20260506034003 | 9 | 174 | 0.0 | 3.2 | 0.18 | 2.11 | 2.11 | 97 | 1008.5 |
| 20260506033503 | 9 | 168 | 0.0 | 3.2 | 0.18 | 2.08 | 2.08 | 97 | 1008.6 |
| 20260506033004 | 9 | 168 | 1.6 | 4.8 | 0.20 | 2.08 | 2.08 | 97 | 1008.6 |
| 20260506032004 | 9 | 53 | 1.6 | 4.8 | 0.20 | 2.06 | 2.06 | 97 | 1008.7 |
| 20260506031506 | 9 | 127 | 1.6 | 4.8 | 0.20 | 2.03 | 2.03 | 97 | 1008.7 |
| 20260506031004 | 9 | 103 | 0.0 | 1.6 | 0.23 | 2.03 | 2.03 | 97 | 1008.6 |
| 20260506030504 | 9 | 101 | 0.0 | 3.2 | 0.25 | 2.01 | 2.01 | 97 | 1008.7 |
| 20260506025503 | 9 | 63 | 0.0 | 4.8 | 0.33 | 1.98 | 1.98 | 97 | 1008.7 |
| 20260506025004 | 9 | 138 | 0.0 | 3.2 | 0.48 | 1.96 | 1.96 | 97 | 1008.8 |
| 20260506024504 | 9 | 73 | 0.0 | 3.2 | 0.64 | 1.93 | 1.93 | 97 | 1009.0 |
| 20260506024004 | 9 | 70 | 0.0 | 1.6 | 0.71 | 1.93 | 1.93 | 97 | 1009.1 |
| 20260506023503 | 9 | 70 | 0.0 | 4.8 | 0.76 | 1.91 | 1.91 | 97 | 1009.2 |
| 20260506023004 | 9 | 37 | 0.0 | 4.8 | 0.86 | 1.88 | 1.88 | 97 | 1009.3 |
| 20260506022503 | 9 | 25 | 1.6 | 3.2 | 0.91 | 1.88 | 1.88 | 97 | 1009.3 |
| 20260506022003 | 9 | 20 | 1.6 | 3.2 | 0.91 | 1.85 | 1.85 | 97 | 1009.3 |
| 20260506020503 | 10 | 11 | 1.6 | 4.8 | 0.86 | 1.75 | 1.75 | 97 | 1009.5 |
| 20260506020003 | 10 | 3 | 1.6 | 4.8 | 0.84 | 1.73 | 1.73 | 97 | 1009.5 |
| 20260506014004 | 10 | 316 | 0.0 | 3.2 | 0.36 | 1.22 | 1.22 | 96 | 1010.0 |
| 20260506013504 | 10 | 320 | 1.6 | 3.2 | 0.30 | 1.14 | 1.14 | 96 | 1009.7 |
| 20260506013003 | 10 | 322 | 0.0 | 4.8 | 0.20 | 1.02 | 1.02 | 96 | 1009.5 |
| 20260506012503 | 10 | 325 | 1.6 | 4.8 | 0.15 | 0.97 | 0.97 | 96 | 1009.4 |
| 20260506012003 | 10 | 359 | 0.0 | 4.8 | 0.15 | 0.94 | 0.94 | 96 | 1009.2 |
| 20260506010503 | 10 | 15 | 3.2 | 4.8 | 0.20 | 0.89 | 0.89 | 96 | 1008.9 |
| 20260506005505 | 10 | 31 | 1.6 | 4.8 | 0.23 | 0.89 | 0.89 | 96 | 1009.1 |
| 20260506005003 | 10 | 317 | 3.2 | 4.8 | 0.25 | 0.89 | 0.89 | 96 | 1009.6 |
| 20260506004504 | 10 | 56 | 0.0 | 3.2 | 0.25 | 0.86 | 0.86 | 96 | 1009.5 |
| 20260506004004 | 10 | 49 | 3.2 | 4.8 | 0.30 | 0.86 | 0.86 | 96 | 1009.2 |
| 20260506003504 | 10 | 203 | 1.6 | 4.8 | 0.30 | 0.84 | 0.84 | 96 | 1009.7 |
| 20260506003003 | 10 | 304 | 1.6 | 4.8 | 0.28 | 0.81 | 0.81 | 96 | 1009.7 |
| 20260506002504 | 10 | 275 | 0.0 | 3.2 | 0.28 | 0.81 | 0.81 | 96 | 1009.5 |
| 20260506001504 | 10 | 274 | 1.6 | 3.2 | 0.25 | 0.79 | 0.79 | 96 | 1009.5 |
| 20260506001004 | 10 | 271 | 0.0 | 4.8 | 0.23 | 0.74 | 0.74 | 96 | 1009.6 |
| 20260506000503 | 10 | 270 | 0.0 | 3.2 | 0.18 | 0.69 | 0.69 | 96 | 1009.5 |
| 20260506000003 | 10 | 271 | 1.6 | 3.2 | 0.15 | 0.66 | 0.66 | 96 | 1009.3 |
| 20260505235503 | 10 | 278 | 1.6 | 4.8 | 0.23 | 0.66 | 0.66 | 95 | 1009.0 |
| 20260505235004 | 10 | 339 | 1.6 | 4.8 | 0.25 | 0.64 | 0.64 | 95 | 1009.2 |
| 20260505234503 | 10 | 293 | 0.0 | 8.0 | 0.25 | 0.61 | 0.61 | 95 | 1009.1 |
| 20260505234004 | 10 | 358 | 3.2 | 8.0 | 0.23 | 0.56 | 0.56 | 95 | 1009.2 |
| 20260505233504 | 10 | 328 | 1.6 | 4.8 | 0.25 | 0.53 | 0.53 | 95 | 1009.1 |
| 20260505233004 | 10 | 342 | 1.6 | 4.8 | 0.28 | 0.53 | 0.53 | 95 | 1008.9 |
| 20260505232503 | 10 | 265 | 3.2 | 4.8 | 0.30 | 0.53 | 0.53 | 95 | 1009.3 |
| 20260505231003 | 10 | 288 | 8.0 | 12.9 | 0.28 | 0.51 | 0.51 | 94 | 1009.0 |
| 20260505230504 | 10 | 343 | 3.2 | 9.7 | 0.28 | 0.51 | 0.51 | 95 | 1009.0 |
| 20260505225504 | 11 | 338 | 4.8 | 9.7 | 0.20 | 0.43 | 0.43 | 94 | 1009.0 |
| 20260505225003 | 11 | 311 | 4.8 | 11.3 | 0.15 | 0.38 | 0.38 | 94 | 1008.9 |
| 20260505224503 | 11 | 325 | 3.2 | 9.7 | 0.13 | 0.36 | 0.36 | 94 | 1009.0 |
| 20260505224004 | 11 | 321 | 6.4 | 12.9 | 0.10 | 0.33 | 0.33 | 94 | 1009.0 |
| 20260505223503 | 11 | 318 | 1.6 | 8.0 | 0.05 | 0.28 | 0.28 | 94 | 1009.1 |
| 20260505223003 | 11 | 285 | 4.8 | 8.0 | 0.05 | 0.25 | 0.25 | 94 | 1009.0 |
| 20260505222504 | 12 | 310 | 4.8 | 8.0 | 0.05 | 0.23 | 0.23 | 93 | 1009.0 |
| 20260505222003 | 12 | 316 | 4.8 | 9.7 | 0.10 | 0.23 | 0.23 | 93 | 1008.9 |
| 20260505221504 | 12 | 302 | 3.2 | 9.7 | 0.15 | 0.23 | 0.23 | 93 | 1008.8 |
| 20260505221004 | 12 | 329 | 3.2 | 12.9 | 0.18 | 0.23 | 0.23 | 93 | 1008.7 |
| 20260505220503 | 12 | 302 | 3.2 | 8.0 | 0.18 | 0.23 | 0.23 | 93 | 1008.7 |
| 20260505220003 | 12 | 299 | 4.8 | 8.0 | 0.18 | 0.23 | 0.23 | 92 | 1008.7 |
| 20260505215505 | 12 | 301 | 4.8 | 9.7 | 0.18 | 0.23 | 0.23 | 92 | 1008.8 |
| 20260505215003 | 12 | 291 | 1.6 | 4.8 | 0.18 | 0.23 | 0.23 | 92 | 1008.8 |
| 20260505214504 | 12 | 286 | 3.2 | 8.0 | 0.18 | 0.23 | 0.23 | 91 | 1008.8 |
| 20260505214003 | 13 | 287 | 6.4 | 12.9 | 0.18 | 0.23 | 0.23 | 90 | 1008.8 |
| 20260505213503 | 13 | 304 | 4.8 | 16.1 | 0.18 | 0.23 | 0.23 | 90 | 1008.7 |
| 20260505213004 | 13 | 301 | 3.2 | 9.7 | 0.15 | 0.20 | 0.20 | 89 | 1008.7 |
| 20260505212503 | 13 | 273 | 3.2 | 9.7 | 0.13 | 0.18 | 0.18 | 87 | 1008.6 |
| 20260505212004 | 13 | 286 | 4.8 | 14.5 | 0.08 | 0.13 | 0.13 | 85 | 1008.6 |
| 20260505211504 | 14 | 274 | 8.0 | 12.9 | 0.03 | 0.08 | 0.08 | 82 | 1008.5 |
| 20260505210504 | 15 | 296 | 6.4 | 12.9 | 0.00 | 0.05 | 0.05 | 79 | 1008.0 |
| 20260505210005 | 15 | 294 | 4.8 | 11.3 | 0.00 | 0.05 | 0.05 | 78 | 1007.8 |
| 20260505205503 | 15 | 314 | 4.8 | 9.7 | 0.00 | 0.05 | 0.05 | 79 | 1007.9 |
| 20260505205004 | 15 | 276 | 4.8 | 11.3 | 0.00 | 0.05 | 0.05 | 78 | 1007.8 |
| 20260505204504 | 15 | 303 | 1.6 | 8.0 | 0.00 | 0.05 | 0.05 | 78 | 1007.8 |
| 20260505204003 | 15 | 292 | 4.8 | 12.9 | 0.00 | 0.05 | 0.05 | 78 | 1007.8 |
| 20260505203504 | 16 | 211 | 8.0 | 11.3 | 0.00 | 0.05 | 0.05 | 77 | 1007.8 |
| 20260505202504 | 16 | 305 | 8.0 | 19.3 | 0.00 | 0.05 | 0.05 | 77 | 1007.8 |
| 20260505202004 | 16 | 285 | 4.8 | 14.5 | 0.00 | 0.05 | 0.05 | 77 | 1008.0 |
| 20260505201504 | 16 | 260 | 4.8 | 12.9 | 0.00 | 0.05 | 0.05 | 76 | 1008.0 |
| 20260505201003 | 16 | 285 | 8.0 | 19.3 | 0.00 | 0.05 | 0.05 | 76 | 1008.1 |
| 20260505200503 | 16 | 303 | 8.0 | 12.9 | 0.00 | 0.05 | 0.05 | 76 | 1008.1 |
| 20260505195504 | 16 | 287 | 3.2 | 16.1 | 0.00 | 0.05 | 0.05 | 76 | 1008.3 |
| 20260505195004 | 16 | 269 | 6.4 | 19.3 | 0.00 | 0.05 | 0.05 | 75 | 1008.2 |
| 20260505194503 | 16 | 228 | 6.4 | 16.1 | 0.00 | 0.05 | 0.05 | 75 | 1008.2 |
| 20260505194003 | 16 | 309 | 3.2 | 14.5 | 0.00 | 0.05 | 0.05 | 76 | 1008.2 |
| 20260505193503 | 16 | 309 | 8.0 | 12.9 | 0.00 | 0.05 | 0.05 | 76 | 1008.0 |
| 20260505193003 | 16 | 291 | 4.8 | 9.7 | 0.00 | 0.05 | 0.05 | 75 | 1008.1 |
| 20260505192503 | 16 | 303 | 4.8 | 16.1 | 0.00 | 0.05 | 0.05 | 75 | 1008.2 |
| 20260505192004 | 16 | 283 | 1.6 | 4.8 | 0.00 | 0.05 | 0.05 | 75 | 1008.0 |
| 20260505191504 | 16 | 307 | 4.8 | 14.5 | 0.00 | 0.05 | 0.05 | 74 | 1008.1 |
| 20260505191004 | 16 | 312 | 6.4 | 11.3 | 0.00 | 0.05 | 0.05 | 73 | 1008.2 |
| 20260505190503 | 17 | 320 | 4.8 | 9.7 | 0.00 | 0.05 | 0.05 | 72 | 1008.1 |
| 20260505185503 | 17 | 318 | 4.8 | 9.7 | 0.00 | 0.05 | 0.05 | 71 | 1008.0 |
| 20260505185003 | 18 | 333 | 4.8 | 12.9 | 0.00 | 0.05 | 0.05 | 68 | 1007.9 |
| 20260505184505 | 18 | 298 | 8.0 | 16.1 | 0.00 | 0.05 | 0.05 | 66 | 1007.9 |
| 20260505184003 | 19 | 207 | 3.2 | 11.3 | 0.00 | 0.05 | 0.05 | 64 | 1007.8 |
| 20260505183503 | 19 | 88 | 3.2 | 11.3 | 0.00 | 0.05 | 0.05 | 65 | 1007.6 |
| 20260505183003 | 19 | 204 | 3.2 | 14.5 | 0.00 | 0.05 | 0.05 | 64 | 1007.5 |
| 20260505182505 | 19 | 238 | 3.2 | 9.7 | 0.00 | 0.05 | 0.05 | 63 | 1007.5 |
| 20260505182004 | 20 | 187 | 8.0 | 20.9 | 0.00 | 0.05 | 0.05 | 62 | 1007.5 |
| 20260505181505 | 20 | 250 | 4.8 | 19.3 | 0.00 | 0.05 | 0.05 | 64 | 1007.5 |
| 20260505181004 | 19 | 311 | 3.2 | 12.9 | 0.00 | 0.05 | 0.05 | 66 | 1007.5 |
| 20260505180504 | 19 | 233 | 4.8 | 11.3 | 0.00 | 0.05 | 0.05 | 66 | 1007.4 |
| 20260505175003 | 18 | 211 | 1.6 | 11.3 | 0.00 | 0.05 | 0.05 | 66 | 1007.3 |
| 20260505174504 | 18 | 238 | 4.8 | 9.7 | 0.00 | 0.05 | 0.05 | 65 | 1007.3 |
| 20260505174004 | 18 | 216 | 4.8 | 19.3 | 0.00 | 0.05 | 0.05 | 65 | 1007.4 |
| 20260505173504 | 18 | 173 | 4.8 | 11.3 | 0.00 | 0.05 | 0.05 | 67 | 1007.3 |
| 20260505173004 | 18 | 180 | 6.4 | 16.1 | 0.00 | 0.05 | 0.05 | 66 | 1007.3 |
| 20260505172504 | 18 | 203 | 8.0 | 11.3 | 0.00 | 0.05 | 0.05 | 66 | 1007.3 |
| 20260505172004 | 18 | 218 | 3.2 | 9.7 | 0.00 | 0.05 | 0.05 | 65 | 1007.3 |
| 20260505171503 | 19 | 285 | 8.0 | 20.9 | 0.00 | 0.05 | 0.05 | 64 | 1007.3 |
| 20260505170503 | 19 | 268 | 4.8 | 12.9 | 0.00 | 0.05 | 0.05 | 65 | 1007.2 |
| 20260505165503 | 20 | 221 | 8.0 | 16.1 | 0.00 | 0.05 | 0.05 | 64 | 1006.9 |
| 20260505165004 | 20 | 252 | 9.7 | 19.3 | 0.00 | 0.05 | 0.05 | 65 | 1006.7 |
| 20260505164504 | 20 | 153 | 9.7 | 24.1 | 0.00 | 0.05 | 0.05 | 65 | 1006.6 |
| 20260505163503 | 19 | 182 | 8.0 | 14.5 | 0.00 | 0.05 | 0.05 | 69 | 1006.4 |
| 20260505163004 | 18 | 264 | 6.4 | 19.3 | 0.00 | 0.05 | 0.05 | 69 | 1006.7 |
| 20260505162505 | 18 | 239 | 8.0 | 20.9 | 0.00 | 0.05 | 0.05 | 70 | 1006.8 |
| 20260505162003 | 18 | 328 | 6.4 | 14.5 | 0.00 | 0.05 | 0.05 | 69 | 1007.0 |
| 20260505161503 | 18 | 165 | 6.4 | 19.3 | 0.00 | 0.05 | 0.05 | 69 | 1007.4 |
| 20260505161004 | 18 | 237 | 8.0 | 22.5 | 0.00 | 0.05 | 0.05 | 68 | 1007.3 |
| 20260505160504 | 18 | 185 | 6.4 | 22.5 | 0.00 | 0.05 | 0.05 | 69 | 1007.3 |
| 20260505153003 | 17 | 295 | 11.3 | 32.2 | 0.00 | 0.05 | 0.05 | 72 | 1007.4 |
| 20260505152003 | 17 | 245 | 8.0 | 22.5 | 0.00 | 0.05 | 0.05 | 73 | 1007.3 |
| 20260505151003 | 17 | 183 | 9.7 | 19.3 | 0.00 | 0.05 | 0.05 | 74 | 1007.1 |
| 20260505150503 | 17 | 211 | 9.7 | 27.4 | 0.00 | 0.05 | 0.05 | 73 | 1006.9 |
| 20260505140504 | 17 | 136 | 4.8 | 14.5 | 0.00 | 0.05 | 0.05 | 72 | 1006.6 |
| 20260505125003 | 17 | 151 | 8.0 | 19.3 | 0.00 | 0.05 | 0.05 | 71 | 1006.0 |
| 20260505124504 | 17 | 181 | 6.4 | 20.9 | 0.00 | 0.05 | 0.05 | 71 | 1006.0 |
| 20260505124005 | 17 | 214 | 4.8 | 19.3 | 0.00 | 0.05 | 0.05 | 71 | 1006.0 |
| 20260505123503 | 17 | 184 | 8.0 | 22.5 | 0.00 | 0.05 | 0.05 | 71 | 1006.0 |
| 20260505123005 | 17 | 166 | 4.8 | 20.9 | 0.00 | 0.05 | 0.05 | 71 | 1006.0 |
| 20260505122504 | 17 | 176 | 9.7 | 16.1 | 0.00 | 0.05 | 0.05 | 71 | 1005.9 |
| 20260505122004 | 17 | 163 | 4.8 | 12.9 | 0.00 | 0.05 | 0.05 | 71 | 1005.9 |
| 20260505121503 | 17 | 157 | 6.4 | 19.3 | 0.00 | 0.05 | 0.05 | 71 | 1005.7 |
| 20260505120503 | 17 | 139 | 4.8 | 14.5 | 0.00 | 0.05 | 0.05 | 71 | 1005.7 |
| 20260505115503 | 17 | 190 | 8.0 | 12.9 | 0.00 | 0.05 | 0.05 | 71 | 1005.8 |
| 20260505115003 | 17 | 159 | 8.0 | 24.1 | 0.00 | 0.05 | 0.05 | 71 | 1005.7 |
| 20260505114503 | 17 | 130 | 4.8 | 14.5 | 0.00 | 0.05 | 0.05 | 71 | 1005.7 |
| 20260505114002 | 17 | 161 | 4.8 | 14.5 | 0.00 | 0.05 | 0.05 | 71 | 1005.5 |
| 20260505113502 | 17 | 173 | 4.8 | 19.3 | 0.00 | 0.05 | 0.05 | 71 | 1005.5 |
| 20260505113004 | 17 | 167 | 4.8 | 11.3 | 0.00 | 0.05 | 0.05 | 71 | 1005.5 |
| 20260505112003 | 16 | 200 | 6.4 | 16.1 | 0.00 | 0.05 | 0.05 | 72 | 1005.2 |
| 20260505111503 | 16 | 155 | 4.8 | 11.3 | 0.00 | 0.05 | 0.05 | 72 | 1005.2 |
| 20260505111003 | 16 | 198 | 6.4 | 19.3 | 0.00 | 0.05 | 0.05 | 71 | 1005.1 |
| 20260505110503 | 16 | 175 | 4.8 | 19.3 | 0.00 | 0.05 | 0.05 | 72 | 1005.1 |
| 20260505102004 | 16 | 144 | 4.8 | 19.3 | 0.00 | 0.05 | 0.05 | 72 | 1004.7 |
| 20260505101503 | 16 | 151 | 4.8 | 11.3 | 0.00 | 0.05 | 0.05 | 72 | 1004.8 |
| 20260505100003 | 16 | 165 | 4.8 | 11.3 | 0.00 | 0.05 | 0.05 | 72 | 1004.6 |
| 20260505095003 | 16 | 184 | 6.4 | 11.3 | 0.00 | 0.05 | 0.05 | 73 | 1004.6 |
| 20260505094502 | 16 | 163 | 8.0 | 19.3 | 0.00 | 0.05 | 0.05 | 73 | 1004.5 |
| 20260505094003 | 16 | 141 | 4.8 | 12.9 | 0.00 | 0.05 | 0.05 | 73 | 1004.6 |
| 20260505093503 | 16 | 140 | 4.8 | 14.5 | 0.00 | 0.05 | 0.05 | 73 | 1004.7 |
| 20260505093003 | 16 | 151 | 3.2 | 14.5 | 0.00 | 0.05 | 0.05 | 74 | 1004.6 |
| 20260505092503 | 16 | 218 | 8.0 | 20.9 | 0.00 | 0.05 | 0.05 | 74 | 1004.6 |
| 20260505092002 | 16 | 140 | 6.4 | 14.5 | 0.00 | 0.05 | 0.05 | 75 | 1004.6 |
| 20260505091503 | 16 | 161 | 6.4 | 14.5 | 0.00 | 0.05 | 0.05 | 75 | 1004.6 |
| 20260505091002 | 16 | 132 | 3.2 | 20.9 | 0.00 | 0.05 | 0.05 | 75 | 1004.5 |
| 20260505090003 | 16 | 166 | 4.8 | 11.3 | 0.00 | 0.05 | 0.05 | 74 | 1004.6 |
| 20260505085504 | 16 | 149 | 6.4 | 19.3 | 0.00 | 0.05 | 0.05 | 74 | 1004.6 |
| 20260505085003 | 16 | 149 | 3.2 | 14.5 | 0.00 | 0.05 | 0.05 | 74 | 1004.4 |
| 20260505084504 | 16 | 162 | 11.3 | 19.3 | 0.00 | 0.05 | 0.05 | 74 | 1004.2 |
| 20260505084003 | 16 | 148 | 4.8 | 19.3 | 0.00 | 0.05 | 0.05 | 74 | 1004.3 |
| 20260505083504 | 16 | 154 | 8.0 | 22.5 | 0.00 | 0.05 | 0.05 | 75 | 1004.4 |
| 20260505083003 | 16 | 145 | 9.7 | 22.5 | 0.00 | 0.05 | 0.05 | 76 | 1004.4 |
| 20260505082503 | 16 | 145 | 6.4 | 19.3 | 0.00 | 0.05 | 0.05 | 76 | 1004.3 |
| 20260505082004 | 15 | 156 | 4.8 | 19.3 | 0.00 | 0.05 | 0.05 | 77 | 1004.3 |
| 20260505081502 | 15 | 148 | 4.8 | 14.5 | 0.00 | 0.05 | 0.05 | 77 | 1004.3 |
| 20260505081003 | 15 | 174 | 4.8 | 12.9 | 0.00 | 0.05 | 0.05 | 78 | 1004.3 |
| 20260505080503 | 15 | 164 | 4.8 | 14.5 | 0.00 | 0.05 | 0.05 | 78 | 1004.3 |
| 20260505080004 | 15 | 159 | 4.8 | 9.7 | 0.00 | 0.05 | 0.05 | 78 | 1004.4 |
| 20260505075004 | 15 | 152 | 4.8 | 16.1 | 0.00 | 0.05 | 0.05 | 80 | 1004.4 |
| 20260505074503 | 15 | 123 | 6.4 | 14.5 | 0.00 | 0.05 | 0.05 | 81 | 1004.3 |
| 20260505074003 | 15 | 142 | 4.8 | 12.9 | 0.00 | 0.05 | 0.05 | 81 | 1004.3 |
| 20260505073503 | 14 | 146 | 4.8 | 12.9 | 0.00 | 0.05 | 0.05 | 81 | 1004.3 |
| 20260505073003 | 15 | 148 | 3.2 | 9.7 | 0.00 | 0.05 | 0.05 | 81 | 1004.3 |
| 20260505072003 | 15 | 190 | 4.8 | 9.7 | 0.00 | 0.05 | 0.05 | 79 | 1004.4 |
| 20260505071003 | 15 | 146 | 4.8 | 14.5 | 0.00 | 0.05 | 0.05 | 78 | 1004.4 |
| 20260505070503 | 15 | 190 | 8.0 | 16.1 | 0.00 | 0.05 | 0.05 | 76 | 1004.3 |
| 20260505070003 | 16 | 199 | 9.7 | 19.3 | 0.00 | 0.05 | 0.05 | 73 | 1004.2 |
| 20260505065003 | 17 | 187 | 9.7 | 22.5 | 0.00 | 0.05 | 0.05 | 69 | 1005.2 |
| 20260505064502 | 17 | 178 | 8.0 | 19.3 | 0.00 | 0.05 | 0.05 | 70 | 1005.1 |
| 20260505064003 | 17 | 216 | 8.0 | 16.1 | 0.00 | 0.05 | 0.05 | 70 | 1005.1 |
| 20260505062504 | 16 | 237 | 3.2 | 11.3 | 0.00 | 0.05 | 0.05 | 72 | 1004.9 |
| 20260505062003 | 16 | 174 | 4.8 | 9.7 | 0.00 | 0.05 | 0.05 | 72 | 1004.8 |
| 20260505061504 | 16 | 135 | 6.4 | 14.5 | 0.00 | 0.05 | 0.05 | 72 | 1004.7 |
| 20260505061004 | 16 | 136 | 6.4 | 12.9 | 0.00 | 0.05 | 0.05 | 72 | 1004.7 |
| 20260505060504 | 16 | 141 | 4.8 | 16.1 | 0.00 | 0.05 | 0.05 | 72 | 1004.8 |
| 20260505060003 | 16 | 179 | 4.8 | 11.3 | 0.00 | 0.05 | 0.05 | 72 | 1004.9 |